When you browse on this site, cookies collect data to enhance your experience and personalize the content and advertising you see.
Visit our Privacy Policy to learn more. By continuing to use the site, you agree to this use of cookies and data.
  • In Switzerland
  • List of Countries
  • For 7 days
  • Water Temperature
  • Satellite Maps
  • Weather Map
  • Weather Widgets
  • user-avatar
    Login

    Hourly Weather Dzhalalabad

    Today, 18 June, Tuesday

    Time Temperature Precipitation Wind Pressure Humidity
    00:00 +23°C° 0 mm 2 mps 690 mmHg 34%
    01:00 +23°C° 0 mm 2 mps 690 mmHg 35%
    02:00 +22°C° 0 mm 1 mps 690 mmHg 35%
    03:00 +22°C° 0 mm 1 mps 690 mmHg 35%
    04:00 +22°C° 0 mm 1 mps 690 mmHg 36%
    05:00 +21°C° 0 mm 2 mps 690 mmHg 34%
    06:00 +23°C° 0 mm 2 mps 690 mmHg 31%
    07:00 +25°C° 0 mm 2 mps 691 mmHg 28%
    08:00 +27°C° 0 mm 2 mps 691 mmHg 25%
    09:00 +28°C° 0 mm 2 mps 691 mmHg 24%
    10:00 +29°C° 0 mm 2 mps 691 mmHg 23%
    11:00 +30°C° 0 mm 3 mps 691 mmHg 22%
    12:00 +31°C° 0 mm 2 mps 691 mmHg 21%
    13:00 +32°C° 0 mm 2 mps 691 mmHg 20%
    14:00 +34°C° 0 mm 2 mps 690 mmHg 19%
    15:00 +34°C° 0 mm 2 mps 691 mmHg 19%
    16:00 +34°C° 0 mm 2 mps 691 mmHg 18%
    17:00 +34°C° 0 mm 3 mps 691 mmHg 18%
    18:00 +31°C° 0 mm 3 mps 691 mmHg 22%
    19:00 +29°C° 0 mm 3 mps 691 mmHg 26%
    20:00 +27°C° 0 mm 3 mps 691 mmHg 30%
    21:00 +26°C° 0 mm 3 mps 691 mmHg 31%
    22:00 +25°C° 0 mm 2 mps 691 mmHg 31%
    23:00 +24°C° 0 mm 2 mps 691 mmHg 32%

    Tomorrow, 19 June, Wednesday

    Time Temperature Precipitation Wind Pressure Humidity
    00:00 +24°C° 0 mm 2 mps 691 mmHg 32%
    01:00 +23°C° 0 mm 2 mps 690 mmHg 33%
    02:00 +23°C° 0 mm 2 mps 690 mmHg 34%
    03:00 +21°C° 0 mm 2 mps 690 mmHg 34%
    04:00 +21°C° 0 mm 2 mps 690 mmHg 34%
    05:00 +21°C° 0 mm 2 mps 690 mmHg 35%
    06:00 +24°C° 0 mm 2 mps 690 mmHg 32%
    07:00 +26°C° 0 mm 1 mps 690 mmHg 29%
    08:00 +28°C° 0 mm 1 mps 691 mmHg 26%
    09:00 +29°C° 0 mm 2 mps 691 mmHg 24%
    10:00 +30°C° 0 mm 2 mps 690 mmHg 23%
    11:00 +33°C° 0 mm 3 mps 690 mmHg 21%
    12:00 +33°C° 0 mm 3 mps 690 mmHg 21%
    13:00 +34°C° 0 mm 3 mps 690 mmHg 20%
    14:00 +34°C° 0 mm 3 mps 690 mmHg 19%
    15:00 +34°C° 0 mm 3 mps 690 mmHg 19%
    16:00 +34°C° 0 mm 3 mps 690 mmHg 19%
    17:00 +34°C° 0 mm 3 mps 690 mmHg 19%
    18:00 +33°C° 0 mm 3 mps 690 mmHg 21%
    19:00 +30°C° 0 mm 3 mps 691 mmHg 24%
    20:00 +28°C° 0 mm 2 mps 691 mmHg 27%
    21:00 +28°C° 0 mm 2 mps 691 mmHg 28%
    22:00 +27°C° 0 mm 2 mps 691 mmHg 30%
    23:00 +26°C° 0 mm 1 mps 691 mmHg 32%

    Day after tomorrow, 20 June, Thursday

    Time Temperature Precipitation Wind Pressure Humidity
    00:00 +25°C° 0 mm 1 mps 691 mmHg 32%
    01:00 +24°C° 0 mm 1 mps 690 mmHg 32%
    02:00 +24°C° 0 mm 1 mps 690 mmHg 33%
    03:00 +23°C° 0 mm 1 mps 690 mmHg 34%
    04:00 +23°C° 0 mm 1 mps 690 mmHg 35%
    05:00 +23°C° 0 mm 2 mps 691 mmHg 36%
    06:00 +25°C° 0 mm 1 mps 691 mmHg 32%
    07:00 +27°C° 0 mm 1 mps 691 mmHg 29%
    08:00 +28°C° 0 mm 1 mps 691 mmHg 26%
    09:00 +29°C° 0 mm 1 mps 691 mmHg 24%
    10:00 +31°C° 0 mm 1 mps 691 mmHg 23%
    11:00 +32°C° 0 mm 1 mps 691 mmHg 21%
    12:00 +34°C° 0 mm 2 mps 691 mmHg 20%
    13:00 +35°C° 0 mm 2 mps 691 mmHg 19%
    14:00 +35°C° 0 mm 2 mps 691 mmHg 18%
    15:00 +35°C° 0 mm 2 mps 691 mmHg 18%
    16:00 +35°C° 0 mm 2 mps 691 mmHg 18%
    17:00 +35°C° 0 mm 2 mps 691 mmHg 17%
    18:00 +34°C° 0 mm 2 mps 691 mmHg 20%
    19:00 +31°C° 0 mm 2 mps 691 mmHg 22%
    20:00 +29°C° 0 mm 2 mps 692 mmHg 25%
    21:00 +28°C° 0 mm 2 mps 692 mmHg 27%
    22:00 +27°C° 0 mm 2 mps 692 mmHg 29%
    23:00 +26°C° 0 mm 2 mps 692 mmHg 32%

    21 June, Friday

    Time Temperature Precipitation Wind Pressure Humidity
    00:00 +25°C° 0 mm 2 mps 691 mmHg 32%
    01:00 +25°C° 0 mm 2 mps 691 mmHg 33%
    02:00 +24°C° 0 mm 2 mps 691 mmHg 34%
    03:00 +24°C° 0 mm 2 mps 691 mmHg 35%
    04:00 +24°C° 0 mm 2 mps 691 mmHg 36%
    05:00 +23°C° 0 mm 2 mps 691 mmHg 37%
    06:00 +26°C° 0 mm 2 mps 691 mmHg 33%
    07:00 +28°C° 0 mm 1 mps 692 mmHg 29%
    08:00 +30°C° 0 mm 1 mps 692 mmHg 25%
    09:00 +31°C° 0 mm 1 mps 692 mmHg 23%
    10:00 +34°C° 0 mm 2 mps 692 mmHg 21%
    11:00 +35°C° 0 mm 2 mps 692 mmHg 20%
    12:00 +35°C° 0 mm 2 mps 691 mmHg 19%
    13:00 +36°C° 0 mm 2 mps 691 mmHg 18%
    14:00 +37°C° 0 mm 2 mps 691 mmHg 17%
    15:00 +37°C° 0 mm 2 mps 691 mmHg 17%
    16:00 +37°C° 0 mm 2 mps 691 mmHg 17%
    17:00 +37°C° 0 mm 2 mps 691 mmHg 17%
    18:00 +35°C° 0 mm 2 mps 691 mmHg 20%
    19:00 +32°C° 0 mm 2 mps 691 mmHg 23%
    20:00 +30°C° 0 mm 2 mps 691 mmHg 25%
    21:00 +29°C° 0 mm 2 mps 691 mmHg 27%
    22:00 +28°C° 0 mm 2 mps 691 mmHg 29%
    23:00 +27°C° 0 mm 2 mps 691 mmHg 30%

    22 June, Saturday

    Time Temperature Precipitation Wind Pressure Humidity
    00:00 +26°C° 0 mm 2 mps 690 mmHg 30%
    01:00 +26°C° 0 mm 2 mps 690 mmHg 30%
    02:00 +25°C° 0 mm 2 mps 690 mmHg 30%
    03:00 +25°C° 0 mm 2 mps 690 mmHg 31%
    04:00 +25°C° 0 mm 2 mps 690 mmHg 31%
    05:00 +24°C° 0 mm 2 mps 690 mmHg 32%
    06:00 +26°C° 0 mm 2 mps 690 mmHg 28%
    07:00 +28°C° 0 mm 2 mps 691 mmHg 25%
    08:00 +30°C° 0 mm 2 mps 691 mmHg 22%
    09:00 +32°C° 0 mm 2 mps 691 mmHg 20%
    10:00 +34°C° 0 mm 3 mps 691 mmHg 19%
    11:00 +35°C° 0 mm 4 mps 691 mmHg 18%
    12:00 +35°C° 0 mm 4 mps 691 mmHg 18%
    13:00 +36°C° 0 mm 4 mps 691 mmHg 17%
    14:00 +37°C° 0 mm 3 mps 691 mmHg 17%
    15:00 +36°C° 0 mm 4 mps 691 mmHg 17%
    16:00 +36°C° 0 mm 5 mps 691 mmHg 17%
    17:00 +36°C° 0 mm 5 mps 691 mmHg 16%
    18:00 +34°C° 0 mm 5 mps 692 mmHg 18%
    19:00 +33°C° 0 mm 5 mps 692 mmHg 20%
    20:00 +30°C° 0 mm 5 mps 692 mmHg 22%
    21:00 +29°C° 0 mm 4 mps 692 mmHg 23%
    22:00 +29°C° 0 mm 3 mps 692 mmHg 24%
    23:00 +28°C° 0 mm 3 mps 693 mmHg 25%

    23 June, Sunday

    Time Temperature Precipitation Wind Pressure Humidity
    00:00 +28°C° 0 mm 2 mps 693 mmHg 26%
    01:00 +27°C° 0 mm 2 mps 693 mmHg 27%
    02:00 +26°C° 0 mm 2 mps 693 mmHg 28%
    03:00 +26°C° 0 mm 2 mps 693 mmHg 31%
    04:00 +25°C° 0 mm 2 mps 693 mmHg 34%
    05:00 +24°C° 0 mm 3 mps 694 mmHg 37%
    06:00 +26°C° 0 mm 3 mps 694 mmHg 35%
    07:00 +27°C° 0 mm 3 mps 694 mmHg 34%
    08:00 +28°C° 0 mm 3 mps 694 mmHg 32%
    09:00 +29°C° 0 mm 2 mps 694 mmHg 29%
    10:00 +31°C° 0 mm 2 mps 694 mmHg 26%
    11:00 +32°C° 0 mm 2 mps 694 mmHg 24%
    12:00 +34°C° 0 mm 2 mps 693 mmHg 22%
    13:00 +34°C° 0 mm 2 mps 693 mmHg 20%
    14:00 +35°C° 0 mm 2 mps 693 mmHg 19%
    15:00 +35°C° 0 mm 2 mps 693 mmHg 18%
    16:00 +35°C° 0 mm 2 mps 693 mmHg 18%
    17:00 +35°C° 0 mm 2 mps 693 mmHg 17%
    18:00 +32°C° 0 mm 2 mps 693 mmHg 21%
    19:00 +30°C° 0 mm 2 mps 693 mmHg 24%
    20:00 +28°C° 0 mm 2 mps 692 mmHg 28%
    21:00 +27°C° 0 mm 2 mps 692 mmHg 30%
    22:00 +26°C° 0 mm 2 mps 692 mmHg 31%
    23:00 +25°C° 0 mm 2 mps 692 mmHg 33%
    Show more